^^
Saratoga-Weather Station Historical Data
Daily Summary for January 28, 2022 Units:  Metric    English   Both
Daily Weekly Monthly Yearly Custom
  High: Low: Average:
Temperature: 4.9 °C 2.1 °C 3.4 °C
Dew Point: 3.6 °C 1.4 °C 2.5 °C
Humidity: 97% 90% 94%
Wind Speed: 17.7km/h 0km/h 5.5km/h
Wind Gust: 20.9km/h - -
Wind- - West
Pressure: 1036.9 hPa 1031.2 hPa -
Precipitation: 0.0 mm    
Historical Graphs
 
 
Tabular Data for January 28, 2022
Time Temperature Dew Point Pressure Wind Wind Speed Wind Gust Humidity Rainfall Rate (Hourly) solar
00:04 2.1 °C 1.4 °C 1031.2 hPa WNW 11.1 km/h 19.3 km/h 95% 0.0 mm 0 W/m2
00:09 2.2 °C 1.6 °C 1031.2 hPa WNW 6.4 km/h 16.1 km/h 96% 0.0 mm 0 W/m2
00:14 2.1 °C 1.5 °C 1031.2 hPa WNW 6.4 km/h 19.3 km/h 96% 0.0 mm 0 W/m2
00:19 2.1 °C 1.5 °C 1031.5 hPa WNW 6.4 km/h 12.9 km/h 96% 0.0 mm 0 W/m2
00:24 2.1 °C 1.5 °C 1031.5 hPa WNW 11.1 km/h 14.5 km/h 96% 0.0 mm 0 W/m2
00:29 2.1 °C 1.4 °C 1031.5 hPa West 6.4 km/h 9.7 km/h 95% 0.0 mm 0 W/m2
00:34 2.2 °C 1.6 °C 1031.5 hPa NNE 1.4 km/h 3.2 km/h 96% 0.0 mm 0 W/m2
00:39 2.1 °C 1.5 °C 1031.5 hPa SSW 3.2 km/h 16.1 km/h 96% 0.0 mm 0 W/m2
00:44 2.1 °C 1.5 °C 1031.5 hPa WNW 6.4 km/h 11.3 km/h 96% 0.0 mm 0 W/m2
00:49 2.1 °C 1.5 °C 1031.2 hPa WSW 11.1 km/h 11.3 km/h 96% 0.0 mm 0 W/m2
00:54 2.1 °C 1.5 °C 1031.5 hPa WSW 7.9 km/h 16.1 km/h 96% 0.0 mm 0 W/m2
00:59 2.1 °C 1.5 °C 1031.5 hPa WNW 17.7 km/h 17.7 km/h 96% 0.0 mm 0 W/m2
01:04 2.1 °C 1.5 °C 1031.5 hPa WSW 13 km/h 19.3 km/h 96% 0.0 mm 0 W/m2
01:09 2.1 °C 1.5 °C 1031.5 hPa WSW 7.9 km/h 16.1 km/h 96% 0.0 mm 0 W/m2
01:14 2.1 °C 1.5 °C 1031.5 hPa WNW 11.1 km/h 17.7 km/h 96% 0.0 mm 0 W/m2
01:19 2.1 °C 1.5 °C 1031.5 hPa West 11.1 km/h 17.7 km/h 96% 0.0 mm 0 W/m2
01:24 2.1 °C 1.5 °C 1031.5 hPa WSW 11.1 km/h 17.7 km/h 96% 0.0 mm 0 W/m2
01:29 2.1 °C 1.5 °C 1031.5 hPa WSW 13 km/h 16.1 km/h 96% 0.0 mm 0 W/m2
01:34 2.1 °C 1.5 °C 1031.5 hPa WSW 13 km/h 16.1 km/h 96% 0.0 mm 0 W/m2
01:39 2.1 °C 1.5 °C 1031.8 hPa WNW 1.4 km/h 19.3 km/h 96% 0.0 mm 0 W/m2
01:44 2.2 °C 1.6 °C 1031.5 hPa West 11.1 km/h 16.1 km/h 96% 0.0 mm 0 W/m2
01:49 2.2 °C 1.6 °C 1031.8 hPa WNW 3.2 km/h 12.9 km/h 96% 0.0 mm 0 W/m2
01:54 2.2 °C 1.6 °C 1031.8 hPa WSW 6.4 km/h 9.7 km/h 96% 0.0 mm 0 W/m2
01:59 2.3 °C 1.7 °C 1031.8 hPa West 6.4 km/h 12.9 km/h 96% 0.0 mm 0 W/m2
02:04 2.3 °C 1.7 °C 1031.8 hPa West 3.2 km/h 16.1 km/h 96% 0.0 mm 0 W/m2
02:09 2.3 °C 1.7 °C 1031.8 hPa NNW 7.9 km/h 16.1 km/h 96% 0.0 mm 0 W/m2
02:14 2.3 °C 1.7 °C 1031.8 hPa SSW 7.9 km/h 12.9 km/h 96% 0.0 mm 0 W/m2
02:19 2.4 °C 1.8 °C 1031.8 hPa SW 7.9 km/h 16.1 km/h 96% 0.0 mm 0 W/m2
02:24 2.4 °C 1.8 °C 1031.8 hPa West 9.7 km/h 9.7 km/h 96% 0.0 mm 0 W/m2
02:29 2.5 °C 1.9 °C 1031.8 hPa WSW 4.7 km/h 11.3 km/h 96% 0.0 mm 0 W/m2
02:34 2.6 °C 2 °C 1032.2 hPa WNW 9.7 km/h 17.7 km/h 96% 0.0 mm 0 W/m2
02:39 2.7 °C 2.1 °C 1032.5 hPa West 9.7 km/h 17.7 km/h 96% 0.0 mm 0 W/m2
02:44 2.7 °C 2.1 °C 1032.5 hPa WNW 6.4 km/h 14.5 km/h 96% 0.0 mm 0 W/m2
02:49 2.7 °C 2.1 °C 1032.5 hPa West 3.2 km/h 17.7 km/h 96% 0.0 mm 0 W/m2
02:54 2.7 °C 2.1 °C 1032.8 hPa West 6.4 km/h 17.7 km/h 96% 0.0 mm 0 W/m2
02:59 2.7 °C 2.1 °C 1032.8 hPa West 9.7 km/h 12.9 km/h 96% 0.0 mm 0 W/m2
03:04 2.7 °C 2.1 °C 1032.8 hPa WSW 7.9 km/h 19.3 km/h 96% 0.0 mm 0 W/m2
03:09 2.8 °C 2.2 °C 1032.8 hPa West 6.4 km/h 16.1 km/h 96% 0.0 mm 0 W/m2
03:14 2.8 °C 2.4 °C 1032.8 hPa NW 4.7 km/h 12.9 km/h 97% 0.0 mm 0 W/m2
03:19 2.8 °C 2.2 °C 1032.8 hPa WSW 7.9 km/h 14.5 km/h 96% 0.0 mm 0 W/m2
03:24 2.8 °C 2.2 °C 1032.8 hPa SW 6.4 km/h 12.9 km/h 96% 0.0 mm 0 W/m2
03:29 2.8 °C 2.2 °C 1032.8 hPa WSW 3.2 km/h 12.9 km/h 96% 0.0 mm 0 W/m2
03:34 2.8 °C 2.2 °C 1032.8 hPa SW 4.7 km/h 16.1 km/h 96% 0.0 mm 0 W/m2
03:39 2.9 °C 2.5 °C 1033.2 hPa NNW 4.7 km/h 16.1 km/h 97% 0.0 mm 0 W/m2
03:44 2.9 °C 2.3 °C 1033.2 hPa West 3.2 km/h 9.7 km/h 96% 0.0 mm 0 W/m2
03:49 2.9 °C 2.3 °C 1032.8 hPa WNW 3.2 km/h 16.1 km/h 96% 0.0 mm 0 W/m2
03:54 2.9 °C 2.3 °C 1033.2 hPa West 13 km/h 16.1 km/h 96% 0.0 mm 0 W/m2
03:59 2.9 °C 2.3 °C 1033.2 hPa West 6.4 km/h 17.7 km/h 96% 0.0 mm 0 W/m2
04:04 2.9 °C 2.3 °C 1033.2 hPa West 4.7 km/h 12.9 km/h 96% 0.0 mm 0 W/m2
04:09 3 °C 2.4 °C 1033.2 hPa SW 6.4 km/h 17.7 km/h 96% 0.0 mm 0 W/m2
04:14 3 °C 2.4 °C 1033.2 hPa West 4.7 km/h 9.7 km/h 96% 0.0 mm 0 W/m2
04:19 3 °C 2.4 °C 1033.2 hPa SW 4.7 km/h 12.9 km/h 96% 0.0 mm 0 W/m2
04:25 2.9 °C 2.3 °C 1033.2 hPa West 6.4 km/h 12.9 km/h 96% 0.0 mm 0 W/m2
04:30 3 °C 2.4 °C 1033.2 hPa West 6.4 km/h 17.7 km/h 96% 0.0 mm 0 W/m2
04:35 3.1 °C 2.5 °C 1033.2 hPa WNW 4.7 km/h 14.5 km/h 96% 0.0 mm 0 W/m2
04:40 3.1 °C 2.5 °C 1033.2 hPa West 9.7 km/h 14.5 km/h 96% 0.0 mm 0 W/m2
04:45 3.1 °C 2.5 °C 1033.2 hPa West 11.1 km/h 12.9 km/h 96% 0.0 mm 0 W/m2
04:50 3.1 °C 2.5 °C 1033.2 hPa WNW 13 km/h 14.5 km/h 96% 0.0 mm 0 W/m2
04:55 3.1 °C 2.5 °C 1033.5 hPa West 11.1 km/h 12.9 km/h 96% 0.0 mm 0 W/m2
05:00 3.1 °C 2.5 °C 1033.2 hPa West 4.7 km/h 11.3 km/h 96% 0.0 mm 0 W/m2
05:05 3.1 °C 2.5 °C 1033.2 hPa WSW 4.7 km/h 9.7 km/h 96% 0.0 mm 0 W/m2
05:10 3.1 °C 2.5 °C 1033.2 hPa SSW 7.9 km/h 9.7 km/h 96% 0.0 mm 0 W/m2
05:15 3 °C 2.4 °C 1033.2 hPa West 3.2 km/h 9.7 km/h 96% 0.0 mm 0 W/m2
05:20 3 °C 2.4 °C 1033.2 hPa WSW 11.1 km/h 14.5 km/h 96% 0.0 mm 0 W/m2
05:30 3 °C 2.4 °C 1033.2 hPa West 6.4 km/h 11.3 km/h 96% 0.0 mm 0 W/m2
05:35 2.9 °C 2.3 °C 1033.5 hPa West 9.7 km/h 16.1 km/h 96% 0.0 mm 0 W/m2
05:40 3 °C 2.4 °C 1033.5 hPa NW 7.9 km/h 16.1 km/h 96% 0.0 mm 0 W/m2
05:45 3.1 °C 2.5 °C 1033.5 hPa WNW 11.1 km/h 12.9 km/h 96% 0.0 mm 0 W/m2
05:50 3.1 °C 2.5 °C 1033.5 hPa West 11.1 km/h 14.5 km/h 96% 0.0 mm 0 W/m2
05:55 3.1 °C 2.5 °C 1033.5 hPa WSW 4.7 km/h 12.9 km/h 96% 0.0 mm 0 W/m2
06:00 3.1 °C 2.5 °C 1033.5 hPa SW 9.7 km/h 11.3 km/h 96% 0.0 mm 0 W/m2
06:05 3.1 °C 2.5 °C 1033.5 hPa West 6.4 km/h 14.5 km/h 96% 0.0 mm 0 W/m2
06:10 3 °C 2.4 °C 1033.9 hPa West 3.2 km/h 12.9 km/h 96% 0.0 mm 0 W/m2
06:15 3.1 °C 2.5 °C 1033.9 hPa West 4.7 km/h 14.5 km/h 96% 0.0 mm 0 W/m2
06:20 3 °C 2.3 °C 1033.9 hPa West 6.4 km/h 12.9 km/h 95% 0.0 mm 0 W/m2
06:25 3.1 °C 2.4 °C 1033.9 hPa West 4.7 km/h 17.7 km/h 95% 0.0 mm 0 W/m2
06:30 3.1 °C 2.4 °C 1033.9 hPa WSW 6.4 km/h 16.1 km/h 95% 0.0 mm 0 W/m2
06:35 3 °C 2.3 °C 1033.9 hPa WNW 4.7 km/h 12.9 km/h 95% 0.0 mm 0 W/m2
06:40 2.9 °C 2.2 °C 1033.9 hPa West 11.1 km/h 16.1 km/h 95% 0.0 mm 0 W/m2
06:45 2.9 °C 2.2 °C 1033.9 hPa West 9.7 km/h 14.5 km/h 95% 0.0 mm 0 W/m2
06:50 2.9 °C 2.2 °C 1033.9 hPa West 6.4 km/h 16.1 km/h 95% 0.0 mm 0 W/m2
06:55 2.9 °C 2.2 °C 1033.9 hPa WNW 6.4 km/h 11.3 km/h 95% 0.0 mm 0 W/m2
07:00 2.9 °C 2.2 °C 1033.9 hPa NW 6.4 km/h 12.9 km/h 95% 0.0 mm 0 W/m2
07:05 2.9 °C 2.2 °C 1033.9 hPa West 6.4 km/h 9.7 km/h 95% 0.0 mm 0 W/m2
07:10 2.9 °C 2.2 °C 1033.9 hPa WSW 6.4 km/h 11.3 km/h 95% 0.0 mm 0 W/m2
07:15 2.9 °C 2.2 °C 1033.9 hPa West 9.7 km/h 12.9 km/h 95% 0.0 mm 0 W/m2
07:20 2.8 °C 2.1 °C 1033.9 hPa NW 4.7 km/h 14.5 km/h 95% 0.0 mm 0 W/m2
07:25 2.8 °C 2.1 °C 1033.9 hPa WNW 4.7 km/h 11.3 km/h 95% 0.0 mm 0 W/m2
07:30 2.8 °C 2.1 °C 1033.9 hPa WSW 7.9 km/h 14.5 km/h 95% 0.0 mm 0 W/m2
07:35 2.8 °C 2.1 °C 1034.2 hPa WNW 6.4 km/h 12.9 km/h 95% 0.0 mm 0 W/m2
07:40 2.7 °C 2 °C 1034.2 hPa WSW 6.4 km/h 14.5 km/h 95% 0.0 mm 0 W/m2
07:45 2.7 °C 2 °C 1034.2 hPa West 6.4 km/h 19.3 km/h 95% 0.0 mm 0 W/m2
07:50 2.7 °C 2 °C 1034.5 hPa WSW 6.4 km/h 12.9 km/h 95% 0.0 mm 0 W/m2
07:55 2.7 °C 2 °C 1034.5 hPa WNW 13 km/h 16.1 km/h 95% 0.0 mm 0 W/m2
08:00 2.7 °C 2 °C 1034.5 hPa West 3.2 km/h 14.5 km/h 95% 0.0 mm 0 W/m2
08:05 2.7 °C 2 °C 1034.5 hPa West 16.3 km/h 16.1 km/h 95% 0.0 mm 0 W/m2
08:10 2.6 °C 1.9 °C 1034.5 hPa West 4.7 km/h 12.9 km/h 95% 0.0 mm 0 W/m2
08:15 2.6 °C 1.9 °C 1034.5 hPa West 13 km/h 16.1 km/h 95% 0.0 mm 5 W/m2
08:20 2.6 °C 1.9 °C 1034.5 hPa WNW 6.4 km/h 14.5 km/h 95% 0.0 mm 7 W/m2
08:25 2.6 °C 1.9 °C 1034.9 hPa WNW 4.7 km/h 9.7 km/h 95% 0.0 mm 9 W/m2
08:30 2.6 °C 1.9 °C 1035.2 hPa WNW 6.4 km/h 14.5 km/h 95% 0.0 mm 12 W/m2
08:35 2.6 °C 1.9 °C 1035.2 hPa West 3.2 km/h 9.7 km/h 95% 0.0 mm 14 W/m2
08:40 2.5 °C 1.8 °C 1035.2 hPa West 9.7 km/h 14.5 km/h 95% 0.0 mm 19 W/m2
08:46 2.6 °C 1.9 °C 1035.2 hPa West 3.2 km/h 14.5 km/h 95% 0.0 mm 30 W/m2
08:51 2.6 °C 1.9 °C 1035.6 hPa West 17.7 km/h 19.3 km/h 95% 0.0 mm 28 W/m2
08:56 2.6 °C 1.9 °C 1035.6 hPa West 6.4 km/h 11.3 km/h 95% 0.0 mm 44 W/m2
09:01 2.6 °C 1.9 °C 1035.6 hPa West 9.7 km/h 9.7 km/h 95% 0.0 mm 32 W/m2
09:06 2.6 °C 1.9 °C 1035.6 hPa WNW 14.3 km/h 14.5 km/h 95% 0.0 mm 42 W/m2
09:11 2.6 °C 1.9 °C 1035.6 hPa West 9.7 km/h 16.1 km/h 95% 0.0 mm 32 W/m2
09:16 2.6 °C 1.9 °C 1035.9 hPa NW 11.1 km/h 16.1 km/h 95% 0.0 mm 44 W/m2
09:21 2.6 °C 1.9 °C 1035.9 hPa NW 7.9 km/h 16.1 km/h 95% 0.0 mm 23 W/m2
09:26 2.6 °C 1.9 °C 1035.9 hPa WNW 4.7 km/h 11.3 km/h 95% 0.0 mm 28 W/m2
09:31 2.6 °C 1.9 °C 1035.9 hPa West 6.4 km/h 19.3 km/h 95% 0.0 mm 32 W/m2
09:36 2.6 °C 1.9 °C 1036.2 hPa WNW 3.2 km/h 9.7 km/h 95% 0.0 mm 37 W/m2
09:41 2.6 °C 1.9 °C 1036.2 hPa West 11.1 km/h 17.7 km/h 95% 0.0 mm 69 W/m2
09:46 2.6 °C 1.9 °C 1036.2 hPa West 4.7 km/h 12.9 km/h 95% 0.0 mm 128 W/m2
09:51 2.7 °C 2 °C 1035.9 hPa WNW 4.7 km/h 17.7 km/h 95% 0.0 mm 151 W/m2
09:56 2.9 °C 2.2 °C 1036.2 hPa SW 6.4 km/h 17.7 km/h 95% 0.0 mm 178 W/m2
10:01 3 °C 2.3 °C 1036.2 hPa WSW 7.9 km/h 11.3 km/h 95% 0.0 mm 118 W/m2
10:06 3.2 °C 2.5 °C 1036.2 hPa West 9.7 km/h 17.7 km/h 95% 0.0 mm 111 W/m2
10:11 3.2 °C 2.5 °C 1036.2 hPa NW 6.4 km/h 12.9 km/h 95% 0.0 mm 148 W/m2
10:16 3.3 °C 2.6 °C 1036.2 hPa WNW 7.9 km/h 17.7 km/h 95% 0.0 mm 158 W/m2
10:21 3.5 °C 2.8 °C 1036.6 hPa WSW 13 km/h 19.3 km/h 95% 0.0 mm 128 W/m2
10:26 3.7 °C 2.8 °C 1036.6 hPa West 9.7 km/h 19.3 km/h 94% 0.0 mm 186 W/m2
10:31 3.7 °C 2.8 °C 1036.6 hPa NW 13 km/h 14.5 km/h 94% 0.0 mm 121 W/m2
10:36 3.8 °C 2.9 °C 1036.6 hPa WNW 4.7 km/h 19.3 km/h 94% 0.0 mm 116 W/m2
10:41 3.8 °C 2.8 °C 1036.6 hPa West 14.3 km/h 16.1 km/h 93% 0.0 mm 63 W/m2
10:46 3.8 °C 2.8 °C 1036.6 hPa West 9.7 km/h 12.9 km/h 93% 0.0 mm 86 W/m2
10:51 3.8 °C 2.8 °C 1036.6 hPa SW 9.7 km/h 16.1 km/h 93% 0.0 mm 88 W/m2
10:56 3.8 °C 2.8 °C 1036.6 hPa WSW 11.1 km/h 17.7 km/h 93% 0.0 mm 90 W/m2
11:01 3.8 °C 2.6 °C 1036.9 hPa WNW 9.7 km/h 12.9 km/h 92% 0.0 mm 90 W/m2
11:06 3.8 °C 2.6 °C 1036.9 hPa West 13 km/h 17.7 km/h 92% 0.0 mm 84 W/m2
11:11 3.8 °C 2.6 °C 1036.9 hPa WNW 13 km/h 14.5 km/h 92% 0.0 mm 139 W/m2
11:16 3.9 °C 2.7 °C 1036.9 hPa West 13 km/h 19.3 km/h 92% 0.0 mm 209 W/m2
11:21 4.2 °C 3 °C 1036.9 hPa WNW 11.1 km/h 12.9 km/h 92% 0.0 mm 250 W/m2
11:26 4.2 °C 3 °C 1036.9 hPa WNW 6.4 km/h 19.3 km/h 92% 0.0 mm 151 W/m2
11:31 4.3 °C 3.1 °C 1036.6 hPa West 14.3 km/h 19.3 km/h 92% 0.0 mm 185 W/m2
11:36 4.3 °C 3.1 °C 1036.9 hPa WSW 6.4 km/h 14.5 km/h 92% 0.0 mm 190 W/m2
11:41 4.3 °C 3.1 °C 1036.6 hPa West 9.7 km/h 19.3 km/h 92% 0.0 mm 149 W/m2
11:46 4.2 °C 3 °C 1036.6 hPa West 9.7 km/h 14.5 km/h 92% 0.0 mm 220 W/m2
11:51 4.3 °C 3.1 °C 1036.6 hPa SW 9.7 km/h 17.7 km/h 92% 0.0 mm 172 W/m2
11:56 4.3 °C 3 °C 1036.6 hPa WNW 7.9 km/h 20.9 km/h 91% 0.0 mm 174 W/m2
12:01 4.2 °C 2.9 °C 1036.6 hPa West 9.7 km/h 12.9 km/h 91% 0.0 mm 120 W/m2
12:06 4.1 °C 2.9 °C 1036.6 hPa WNW 14.3 km/h 20.9 km/h 92% 0.0 mm 144 W/m2
12:11 3.9 °C 2.7 °C 1036.9 hPa WSW 6.4 km/h 11.3 km/h 92% 0.0 mm 109 W/m2
12:16 3.8 °C 2.6 °C 1036.9 hPa WNW 14.5 km/h 14.5 km/h 92% 0.0 mm 98 W/m2
12:21 3.8 °C 2.6 °C 1036.9 hPa WSW 4.7 km/h 4.8 km/h 92% 0.0 mm 88 W/m2
12:26 3.8 °C 2.6 °C 1036.6 hPa WNW 4.7 km/h 9.7 km/h 92% 0.0 mm 88 W/m2
12:31 3.8 °C 2.6 °C 1036.6 hPa NW 3.2 km/h 6.4 km/h 92% 0.0 mm 120 W/m2
12:36 3.8 °C 2.6 °C 1036.6 hPa West 1.4 km/h 11.3 km/h 92% 0.0 mm 102 W/m2
12:41 3.7 °C 2.5 °C 1036.6 hPa West 3.2 km/h 12.9 km/h 92% 0.0 mm 116 W/m2
12:46 3.7 °C 2.7 °C 1036.6 hPa WSW 1.4 km/h 4.8 km/h 93% 0.0 mm 104 W/m2
12:51 3.7 °C 2.7 °C 1036.6 hPa NW 3.2 km/h 6.4 km/h 93% 0.0 mm 190 W/m2
12:56 3.7 °C 2.7 °C 1036.6 hPa West 9.7 km/h 9.7 km/h 93% 0.0 mm 139 W/m2
13:01 3.8 °C 2.8 °C 1036.6 hPa WNW 13 km/h 12.9 km/h 93% 0.0 mm 153 W/m2
13:06 3.9 °C 2.9 °C 1036.6 hPa NW 4.7 km/h 6.4 km/h 93% 0.0 mm 130 W/m2
13:11 4 °C 3 °C 1036.6 hPa WNW 11.3 km/h 11.3 km/h 93% 0.0 mm 142 W/m2
13:16 4 °C 3 °C 1036.6 hPa WSW 1.4 km/h 8 km/h 93% 0.0 mm 167 W/m2
13:21 4.1 °C 3.1 °C 1036.6 hPa WNW 3.2 km/h 6.4 km/h 93% 0.0 mm 90 W/m2
13:26 4.1 °C 3.1 °C 1036.6 hPa NW 1.4 km/h 6.4 km/h 93% 0.0 mm 121 W/m2
13:31 4.1 °C 3.1 °C 1036.9 hPa SW 4.7 km/h 6.4 km/h 93% 0.0 mm 165 W/m2
13:36 4.1 °C 2.9 °C 1036.6 hPa WNW 3.2 km/h 9.7 km/h 92% 0.0 mm 132 W/m2
13:41 4.2 °C 3.2 °C 1036.6 hPa WNW 3.2 km/h 4.8 km/h 93% 0.0 mm 144 W/m2
13:46 4.2 °C 3 °C 1036.6 hPa WNW 4.7 km/h 6.4 km/h 92% 0.0 mm 181 W/m2
13:51 4.2 °C 3.2 °C 1036.2 hPa Calm   6.4 km/h 93% 0.0 mm 163 W/m2
13:56 4.3 °C 3.3 °C 1036.2 hPa West 4.7 km/h 12.9 km/h 93% 0.0 mm 116 W/m2
14:01 4.3 °C 3.1 °C 1035.9 hPa WSW 4.7 km/h 6.4 km/h 92% 0.0 mm 163 W/m2
14:06 4.4 °C 3.2 °C 1035.9 hPa West 1.4 km/h 12.9 km/h 92% 0.0 mm 134 W/m2
14:11 4.4 °C 3.2 °C 1035.9 hPa West 1.4 km/h 4.8 km/h 92% 0.0 mm 111 W/m2
14:16 4.6 °C 3.4 °C 1035.9 hPa NW 3.2 km/h 6.4 km/h 92% 0.0 mm 74 W/m2
14:21 4.6 °C 3.4 °C 1035.9 hPa NW 7.9 km/h 8 km/h 92% 0.0 mm 81 W/m2
14:26 4.6 °C 3.4 °C 1035.9 hPa WSW 4.7 km/h 12.9 km/h 92% 0.0 mm 76 W/m2
14:31 4.6 °C 3.4 °C 1035.9 hPa West 6.4 km/h 11.3 km/h 92% 0.0 mm 65 W/m2
14:36 4.6 °C 3.4 °C 1035.9 hPa WNW 3.2 km/h 6.4 km/h 92% 0.0 mm 49 W/m2
14:41 4.6 °C 3.4 °C 1035.9 hPa WNW 11.1 km/h 11.3 km/h 92% 0.0 mm 77 W/m2
14:46 4.6 °C 3.4 °C 1035.9 hPa Calm   8 km/h 92% 0.0 mm 90 W/m2
14:51 4.6 °C 3.4 °C 1035.6 hPa West 3.2 km/h 4.8 km/h 92% 0.0 mm 70 W/m2
14:56 4.6 °C 3.4 °C 1035.6 hPa West 3.2 km/h 11.3 km/h 92% 0.0 mm 69 W/m2
15:01 4.6 °C 3.4 °C 1035.6 hPa SW 11.1 km/h 11.3 km/h 92% 0.0 mm 90 W/m2
15:06 4.6 °C 3.4 °C 1035.6 hPa WNW 1.4 km/h 6.4 km/h 92% 0.0 mm 69 W/m2
15:11 4.7 °C 3.5 °C 1035.6 hPa Calm   4.8 km/h 92% 0.0 mm 98 W/m2
15:16 4.8 °C 3.6 °C 1035.6 hPa West 6.4 km/h 9.7 km/h 92% 0.0 mm 65 W/m2
15:21 4.8 °C 3.5 °C 1035.6 hPa West 3.2 km/h 6.4 km/h 91% 0.0 mm 58 W/m2
15:26 4.8 °C 3.5 °C 1035.6 hPa Calm   6.4 km/h 91% 0.0 mm 37 W/m2
15:32 4.9 °C 3.6 °C 1035.6 hPa West 3.2 km/h 6.4 km/h 91% 0.0 mm 40 W/m2
15:37 4.9 °C 3.6 °C 1035.6 hPa WSW 1.4 km/h 4.8 km/h 91% 0.0 mm 42 W/m2
15:42 4.9 °C 3.6 °C 1035.6 hPa West 1.4 km/h 4.8 km/h 91% 0.0 mm 47 W/m2
15:47 4.9 °C 3.6 °C 1035.6 hPa Calm   6.4 km/h 91% 0.0 mm 33 W/m2
15:52 4.9 °C 3.4 °C 1035.6 hPa WNW 4.7 km/h 9.7 km/h 90% 0.0 mm 30 W/m2
15:57 4.9 °C 3.4 °C 1035.6 hPa WNW 6.4 km/h 6.4 km/h 90% 0.0 mm 32 W/m2
16:02 4.9 °C 3.4 °C 1035.6 hPa West 4.7 km/h 11.3 km/h 90% 0.0 mm 23 W/m2
16:07 4.9 °C 3.4 °C 1035.6 hPa WNW 9.7 km/h 9.7 km/h 90% 0.0 mm 32 W/m2
16:12 4.9 °C 3.4 °C 1035.6 hPa West 3.2 km/h 3.2 km/h 90% 0.0 mm 32 W/m2
16:17 4.9 °C 3.4 °C 1035.6 hPa WSW 8 km/h 8 km/h 90% 0.0 mm 16 W/m2
16:22 4.9 °C 3.4 °C 1035.6 hPa West 4.7 km/h 4.8 km/h 90% 0.0 mm 9 W/m2
16:27 4.9 °C 3.4 °C 1035.9 hPa NW 3.2 km/h 4.8 km/h 90% 0.0 mm 14 W/m2
16:32 4.8 °C 3.3 °C 1035.9 hPa NW 3.2 km/h 3.2 km/h 90% 0.0 mm 12 W/m2
16:37 4.8 °C 3.3 °C 1035.6 hPa WNW 4.7 km/h 4.8 km/h 90% 0.0 mm 12 W/m2
16:42 4.8 °C 3.3 °C 1035.6 hPa Calm   1.6 km/h 90% 0.0 mm 12 W/m2
16:47 4.7 °C 3.2 °C 1035.6 hPa WSW 3.2 km/h 9.7 km/h 90% 0.0 mm 9 W/m2
16:52 4.7 °C 3.2 °C 1035.6 hPa WNW 6.4 km/h 8 km/h 90% 0.0 mm 5 W/m2
16:57 4.7 °C 3.2 °C 1035.6 hPa West 6.4 km/h 11.3 km/h 90% 0.0 mm 5 W/m2
17:02 4.7 °C 3.2 °C 1035.9 hPa WNW 1.4 km/h 3.2 km/h 90% 0.0 mm 0 W/m2
17:07 4.7 °C 3.2 °C 1035.9 hPa WNW 1.4 km/h 6.4 km/h 90% 0.0 mm 0 W/m2
17:12 4.7 °C 3.2 °C 1035.9 hPa Calm   4.8 km/h 90% 0.0 mm 0 W/m2
17:17 4.6 °C 3.3 °C 1035.9 hPa WNW 1.4 km/h 6.4 km/h 91% 0.0 mm 0 W/m2
17:22 4.6 °C 3.3 °C 1035.9 hPa Calm   1.6 km/h 91% 0.0 mm 0 W/m2
17:27 4.6 °C 3.3 °C 1035.9 hPa WNW 3.2 km/h 4.8 km/h 91% 0.0 mm 0 W/m2
17:32 4.5 °C 3.2 °C 1035.9 hPa Calm   4.8 km/h 91% 0.0 mm 0 W/m2
17:37 4.5 °C 3.2 °C 1035.9 hPa SW 4.7 km/h 8 km/h 91% 0.0 mm 0 W/m2
17:42 4.4 °C 3.1 °C 1036.2 hPa West 4.7 km/h 9.7 km/h 91% 0.0 mm 0 W/m2
17:47 4.4 °C 3.1 °C 1036.2 hPa West 4.7 km/h 6.4 km/h 91% 0.0 mm 0 W/m2
17:52 4.4 °C 3.1 °C 1036.2 hPa Calm   3.2 km/h 91% 0.0 mm 0 W/m2
17:57 4.4 °C 3.1 °C 1036.2 hPa West 3.2 km/h 6.4 km/h 91% 0.0 mm 0 W/m2
18:02 4.4 °C 3.1 °C 1036.2 hPa Calm   3.2 km/h 91% 0.0 mm 0 W/m2
18:07 4.4 °C 3.1 °C 1036.2 hPa WNW 1.4 km/h 6.4 km/h 91% 0.0 mm 0 W/m2
18:12 4.3 °C 3.1 °C 1036.2 hPa NNW 1.4 km/h 4.8 km/h 92% 0.0 mm 0 W/m2
18:17 4.3 °C 3 °C 1036.2 hPa WNW 1.4 km/h 6.4 km/h 91% 0.0 mm 0 W/m2
18:22 4.3 °C 3.1 °C 1036.2 hPa WNW 1.4 km/h 1.6 km/h 92% 0.0 mm 0 W/m2
18:27 4.3 °C 3 °C 1036.2 hPa Calm     91% 0.0 mm 0 W/m2
18:32 4.3 °C 3 °C 1036.2 hPa West 3.2 km/h 6.4 km/h 91% 0.0 mm 0 W/m2
18:37 4.3 °C 3 °C 1036.2 hPa Calm     91% 0.0 mm 0 W/m2
18:42 4.3 °C 3.1 °C 1036.2 hPa WSW 1.4 km/h 6.4 km/h 92% 0.0 mm 0 W/m2
18:47 4.3 °C 3.1 °C 1036.2 hPa West 1.4 km/h 4.8 km/h 92% 0.0 mm 0 W/m2
18:52 4.3 °C 3.1 °C 1036.2 hPa West 4.7 km/h 6.4 km/h 92% 0.0 mm 0 W/m2
18:57 4.2 °C 3 °C 1036.2 hPa West 1.4 km/h 3.2 km/h 92% 0.0 mm 0 W/m2
19:02 4.2 °C 3 °C 1036.2 hPa WNW 4.7 km/h 4.8 km/h 92% 0.0 mm 0 W/m2
19:07 4.1 °C 2.9 °C 1035.9 hPa South 1.4 km/h 3.2 km/h 92% 0.0 mm 0 W/m2
19:12 4.1 °C 3.1 °C 1035.9 hPa Calm   3.2 km/h 93% 0.0 mm 0 W/m2
19:17 4.1 °C 3.1 °C 1035.9 hPa WNW 1.4 km/h 1.6 km/h 93% 0.0 mm 0 W/m2
19:22 4 °C 3 °C 1035.9 hPa Calm     93% 0.0 mm 0 W/m2
19:27 3.9 °C 2.9 °C 1035.9 hPa SE 3.2 km/h 3.2 km/h 93% 0.0 mm 0 W/m2
19:32 3.9 °C 2.9 °C 1035.9 hPa Calm   1.6 km/h 93% 0.0 mm 0 W/m2
19:37 3.9 °C 2.9 °C 1035.9 hPa West 4.7 km/h 6.4 km/h 93% 0.0 mm 0 W/m2
19:42 3.8 °C 2.9 °C 1035.9 hPa WNW 3.2 km/h 4.8 km/h 94% 0.0 mm 0 W/m2
19:47 3.8 °C 2.8 °C 1035.9 hPa West 4.7 km/h 9.7 km/h 93% 0.0 mm 0 W/m2
19:52 3.8 °C 2.9 °C 1035.9 hPa Calm   3.2 km/h 94% 0.0 mm 0 W/m2
19:57 3.7 °C 2.8 °C 1035.9 hPa Calm   1.6 km/h 94% 0.0 mm 0 W/m2
20:02 3.7 °C 2.8 °C 1035.9 hPa NW 1.4 km/h 3.2 km/h 94% 0.0 mm 0 W/m2
20:07 3.7 °C 2.8 °C 1035.9 hPa NW 1.4 km/h 4.8 km/h 94% 0.0 mm 0 W/m2
20:12 3.6 °C 2.7 °C 1035.9 hPa Calm   4.8 km/h 94% 0.0 mm 0 W/m2
20:17 3.6 °C 2.7 °C 1035.9 hPa West 1.4 km/h 3.2 km/h 94% 0.0 mm 0 W/m2
20:22 3.6 °C 2.7 °C 1035.9 hPa West 1.4 km/h 4.8 km/h 94% 0.0 mm 0 W/m2
20:27 3.5 °C 2.6 °C 1035.9 hPa NNW 3.2 km/h 6.4 km/h 94% 0.0 mm 0 W/m2
20:32 3.5 °C 2.6 °C 1035.9 hPa West 3.2 km/h 4.8 km/h 94% 0.0 mm 0 W/m2
20:37 3.4 °C 2.5 °C 1035.9 hPa NW 6.4 km/h 9.7 km/h 94% 0.0 mm 0 W/m2
20:42 3.4 °C 2.5 °C 1035.9 hPa West 3.2 km/h 6.4 km/h 94% 0.0 mm 0 W/m2
20:47 3.4 °C 2.7 °C 1035.9 hPa WSW 1.4 km/h 9.7 km/h 95% 0.0 mm 0 W/m2
20:52 3.3 °C 2.6 °C 1035.9 hPa NW 1.4 km/h 3.2 km/h 95% 0.0 mm 0 W/m2
20:57 3.3 °C 2.6 °C 1035.9 hPa WNW 3.2 km/h 9.7 km/h 95% 0.0 mm 0 W/m2
21:02 3.3 °C 2.6 °C 1035.6 hPa Calm   4.8 km/h 95% 0.0 mm 0 W/m2
21:07 3.3 °C 2.6 °C 1035.6 hPa NW 1.4 km/h 3.2 km/h 95% 0.0 mm 0 W/m2
21:12 3.3 °C 2.6 °C 1035.9 hPa Calm     95% 0.0 mm 0 W/m2
21:17 3.3 °C 2.6 °C 1035.6 hPa South 1.4 km/h 4.8 km/h 95% 0.0 mm 0 W/m2
21:22 3.2 °C 2.5 °C 1035.6 hPa WNW 3.2 km/h 3.2 km/h 95% 0.0 mm 0 W/m2
21:27 3.2 °C 2.5 °C 1035.6 hPa WNW 4.7 km/h 6.4 km/h 95% 0.0 mm 0 W/m2
21:32 3.2 °C 2.5 °C 1035.6 hPa West 1.4 km/h 4.8 km/h 95% 0.0 mm 0 W/m2
21:37 3.2 °C 2.5 °C 1035.6 hPa West 3.2 km/h 3.2 km/h 95% 0.0 mm 0 W/m2
21:42 3.2 °C 2.5 °C 1035.2 hPa NW 3.2 km/h 4.8 km/h 95% 0.0 mm 0 W/m2
21:47 3.2 °C 2.5 °C 1035.6 hPa Calm   1.6 km/h 95% 0.0 mm 0 W/m2
21:52 3.2 °C 2.5 °C 1035.6 hPa Calm   6.4 km/h 95% 0.0 mm 0 W/m2
21:57 3.1 °C 2.4 °C 1035.2 hPa Calm   6.4 km/h 95% 0.0 mm 0 W/m2
22:02 3.1 °C 2.4 °C 1035.2 hPa NW 3.2 km/h 4.8 km/h 95% 0.0 mm 0 W/m2
22:07 3.1 °C 2.4 °C 1035.2 hPa Calm   4.8 km/h 95% 0.0 mm 0 W/m2
22:12 3.1 °C 2.4 °C 1035.2 hPa Calm   1.6 km/h 95% 0.0 mm 0 W/m2
22:17 3.1 °C 2.4 °C 1035.2 hPa WNW 4.7 km/h 4.8 km/h 95% 0.0 mm 0 W/m2
22:22 3.1 °C 2.4 °C 1035.2 hPa NW 1.4 km/h 3.2 km/h 95% 0.0 mm 0 W/m2
22:27 3 °C 2.3 °C 1035.2 hPa Calm   3.2 km/h 95% 0.0 mm 0 W/m2
22:32 3 °C 2.3 °C 1035.2 hPa WNW 3.2 km/h 6.4 km/h 95% 0.0 mm 0 W/m2
22:37 2.9 °C 2.2 °C 1035.2 hPa West 1.4 km/h 3.2 km/h 95% 0.0 mm 0 W/m2
22:42 2.9 °C 2.2 °C 1035.2 hPa Calm   4.8 km/h 95% 0.0 mm 0 W/m2
22:47 2.9 °C 2.2 °C 1035.2 hPa WSW 1.4 km/h 1.6 km/h 95% 0.0 mm 0 W/m2
22:52 2.9 °C 2.2 °C 1035.2 hPa WSW 3.2 km/h 12.9 km/h 95% 0.0 mm 0 W/m2
22:57 2.8 °C 2.1 °C 1035.2 hPa West 3.2 km/h 4.8 km/h 95% 0.0 mm 0 W/m2
23:02 2.8 °C 2.1 °C 1035.2 hPa Calm   12.9 km/h 95% 0.0 mm 0 W/m2
23:07 2.8 °C 2.1 °C 1035.2 hPa Calm   4.8 km/h 95% 0.0 mm 0 W/m2
23:12 2.8 °C 2.1 °C 1035.2 hPa WNW 3.2 km/h 3.2 km/h 95% 0.0 mm 0 W/m2
23:17 2.8 °C 2.1 °C 1035.2 hPa WSW 3.2 km/h 4.8 km/h 95% 0.0 mm 0 W/m2
23:22 2.7 °C 2 °C 1034.9 hPa WSW 3.2 km/h 6.4 km/h 95% 0.0 mm 0 W/m2
23:27 2.7 °C 2 °C 1034.9 hPa WNW 3.2 km/h 9.7 km/h 95% 0.0 mm 0 W/m2
23:32 2.7 °C 2 °C 1034.5 hPa NW 1.4 km/h 3.2 km/h 95% 0.0 mm 0 W/m2
23:37 2.7 °C 2 °C 1034.5 hPa WSW 3.2 km/h 8 km/h 95% 0.0 mm 0 W/m2
23:42 2.7 °C 2 °C 1034.5 hPa SW 3.2 km/h 8 km/h 95% 0.0 mm 0 W/m2
23:47 2.7 °C 2 °C 1034.5 hPa NNW 4.7 km/h 4.8 km/h 95% 0.0 mm 0 W/m2
23:52 2.7 °C 2 °C 1034.2 hPa NW 3.2 km/h 6.4 km/h 95% 0.0 mm 0 W/m2
23:57 2.7 °C 2 °C 1034.2 hPa SSW 3.2 km/h 6.4 km/h 95% 0.0 mm 0 W/m2
Juneau County Weather
Compliments of Weather Underground - 4 mb